Tracking 28790 objects as of 19-Apr-2024
HD Live streaming from Space Station
objects crossing your sky now

COSMOS 2251 DEB

Track COSMOS 2251 DEB now!
10-day predictions


NORAD ID: 34304
Int'l Code: 1993-036NA
Perigee: 697.9 km
Apogee: 901.8 km
Inclination: 74.0 °
Period: 100.7 minutes
Semi major axis: 7170 km
RCS: 0.0279 m2 (small)
Launch date: June 16, 1993
Source: Commonwealth of Independent States (former USSR) (CIS)
Launch site: PLESETSK MISSILE AND SPACE COMPLEX (PKMTR)

Note: This is SATELLITE DEBRIS
Your satellite tracking list
Your tracking list is empty




NASA's NSSDC Master Catalog

Two Line Element Set (TLE):
1 34304U 93036NA  24109.89932602  .00006715  00000-0  23531-2 0  9995
2 34304  74.0170 147.8954 0142183  67.1441 348.1018 14.29706646786545
Source of the keplerian elements: AFSPC